User: anonymous   Login
Location: Potawatomi Wildlife Park
(41.2308°N, 86.1050°W)
Time: 05:23:15
(UTC-04:00)
Language:

SL-16 R/B - Orbit

View from above orbital plane
View from above orbital plane
View from above satellite
View from above satellite

Ground track
Ground track

The orbit data is extracted from the following two-line orbital elements,

1 27006U 01056F   15087.19130398  .00000052  00000-0  10511-3 0  9990
2 27006 099.1955 247.4345 0013746 269.1468 228.2958 13.70947967665232
Epoch (UTC): 28 March 2015 04:35:28
Eccentricity: 0.0013746
inclination: 99.1955°
perigee height: 986 km
apogee height: 1006 km
right ascension of ascending node: 247.4345°
argument of perigee: 269.1468°
revolutions per day: 13.70947967
mean anomaly at epoch: 228.2958°
orbit number at epoch: 66523

The dashed part of the orbit path shows where the satellite is in the earth's shadow,  

DLR